Home > Time Zones > World Clock > Weather > India > Siwan > Past weeks

Flag for India Weather past 2 weeks in Siwan, Bihar, India

Now
72 °F

Haze.


Feels Like: 77 °F
Forecast: 80 / 108 °F
Wind: 2 mph from West

Location: Varanasi / Babatpur


UV Index: 7 (High)

Visibility: 2 mi


Pressure: 29.80 "Hg

Humidity: 50%

Dew point: 52 °F

Location of SiwanLocation

Historic Weather in Siwan

°F

Siwan temperature yesterday

Maximum temperature yesterday: 95 °F (at 2:00 PM)
Minimum temperature yesterday: 73 °F (at 4:00 AM)
Average temperature yesterday: 85 °F

Past Weeks' High & Low Weather Summary

 TemperatureHumidityPressure
High104 °F (Apr 7, 1:00 PM)78% (Apr 7, 5:00 AM)29.95 "Hg (Apr 7, 5:00 AM)
Low66 °F (Apr 10, 6:00 AM)10% (Apr 10, 12:00 PM)29.65 "Hg (Apr 7, 4:00 PM)
Average87 °F35%29.79 "Hg
* Reported Apr 6 5:00 AM — Apr 21 5:00 AM, Siwan, Weather by CustomWeather, © 2014

Note: Actual official high and low records may vary slightly from our data, if they occured in-between our weather recording intervals... More about our weather records

Advertising

Historic Weather Conditions — Data for Previous 24 hours

 ConditionsComfort  
Time TempWeatherWind HumidityBarometerVisibility
5:00 AM
Apr 21
72 °FHaze.2 mph50%29.80 "Hg2 mi
4:00 AM73 °FHaze.No wind47%29.80 "Hg3 mi
12:00 AM79 °FHaze.2 mph34%29.80 "Hg3 mi
10:00 PM
Apr 20
84 °FHaze.2 mph31%29.80 "Hg3 mi
8:00 PM88 °FClear.5 mph27%29.77 "Hg4 mi
7:00 PM88 °FPassing clouds.6 mph27%29.77 "Hg4 mi
6:00 PM91 °FScattered clouds.10 mph26%29.77 "Hg4 mi
5:00 PM93 °FScattered clouds.14 mph17%29.74 "Hg4 mi
4:00 PM93 °FClear.12 mph21%29.77 "Hg4 mi
2:00 PM95 °FClear.6 mph25%29.83 "Hg4 mi
1:00 PM93 °FScattered clouds.7 mph28%29.83 "Hg3 mi
12:00 PM90 °FScattered clouds.5 mph31%29.86 "Hg3 mi
11:00 AM90 °FScattered clouds.7 mph33%29.89 "Hg3 mi
10:00 AM86 °FHaze.9 mph35%29.89 "Hg3 mi
9:00 AM82 °FHaze.6 mph45%29.89 "Hg3 mi
8:00 AM77 °FHaze.3 mph61%29.89 "Hg2 mi
7:00 AM75 °FScattered clouds.No wind69%29.86 "Hg2 mi
Weather by CustomWeather, © 2014

See weather overview